Back to catalog

STARLINK-11138

AliveCommunicationsVLEO
NORAD 59949·PAYLOAD·🇺🇸 United States

Launched Jun 5, 2024 from Cape Canaveral Space Force Station

Loading…

Next Passes (next 24 hours)

TLE

FreshSource: CelesTrak SupGP

Epoch: Sep 14, 2026, 15:17 UTC

1 59949C 24107E   26257.63729167 -.00090252  00000+0 -74350-3 0  2571
2 59949  53.1570  39.7874 0001017  81.2487 246.1889 15.69752500    15

Track STARLINK-11138 in real time with AllMySat

Download on the App Store